Regional Weather Roundup
Issued by NWS

Home | Current Version | Previous Version | Text Only | Print | Product List | Glossary Off
Versions: 1 2 3 4 5 6 7 8 9 10 11 12 13 14 15 16 17 18 19 20 21 22 23 24 25 26 27 28 29 30 31 32 33 34 35 36 37 38 39 40 41 42 43 44 45 46 47 48 49 50

000
ASUS43 KBIS 191510
RWRND

NORTH DAKOTA REGIONAL WEATHER ROUNDUP
NATIONAL WEATHER SERVICE BISMARCK ND
900 AM CST MON FEB 19 2018

NOTE: "FAIR" INDICATES FEW OR NO CLOUDS BELOW 12,000 FEET WITH NO
SIGNIFICANT WEATHER AND/OR OBSTRUCTIONS TO VISIBILITY.


NDZ001>003-009>011-017-191600-
NORTHWEST NORTH DAKOTA

CITY           SKY/WX    TMP DP  RH WIND       PRES   REMARKS
WILLISTON      CLOUDY   -11 -14  86 CALM      30.20R
MINOT          CLOUDY    -5 -13  68 S3        30.21R
MINOT AFB      CLOUDY   -11 -18  72 CALM      30.20R
$$

NDZ018>021-031>035-040>046-191600-
SOUTHWEST NORTH DAKOTA

CITY           SKY/WX    TMP DP  RH WIND       PRES   REMARKS
BISMARCK       PTSUNNY    2  -4  76 NE9       30.21R WCI -13
DICKINSON      CLOUDY     0 -10  63 NE6       30.08F WCI -12
GARRISON         N/A     -7 -15  68 N3        30.19R
HETTINGER ARPT CLOUDY     0 -11  59 NE9       30.09R WCI -15
$$

NDZ004>008-012>016-024-026-027-054-191600-
NORTHEAST NORTH DAKOTA

CITY           SKY/WX    TMP DP  RH WIND       PRES   REMARKS
GRAND FORKS    CLOUDY    -1  -7  75 N15       30.26R WCI -21
GRND FRKS AFB  FAIR      -2 -10  69 N13       30.27R WCI -20
DEVILS LAKE    FAIR      -8 -13  78 N10       30.25R WCI -26
$$

NDZ022-023-025-028>030-036>039-047>053-191600-
SOUTHEAST NORTH DAKOTA

CITY           SKY/WX    TMP DP  RH WIND       PRES   REMARKS
FARGO          PTSUNNY    5  -2  72 N17       30.20R WCI -14
JAMESTOWN      MOSUNNY    2  -6  69 N15       30.17R WCI -17
$$





USA.gov is the U.S. government's official web portal to all federal, state and local government web resources and services.